Regional Weather Roundup
Issued by NWS Little Rock, AR

Home | Current Version | Previous Version | Text Only | Print | Product List | Glossary Off
Versions: 1 2 3 4 5 6 7 8 9 10 11 12 13 14 15 16 17 18 19 20 21 22 23 24 25 26 27 28 29 30 31 32 33 34 35 36 37 38 39 40 41 42 43 44 45 46 47 48 49 50

000
ASUS44 KLZK 072005
RWRLZK

WEATHER ROUNDUP FOR ARKANSAS
NATIONAL WEATHER SERVICE LITTLE ROCK AR
200 PM CST SUN FEB 07 2016

NOTE: "FAIR" INDICATES FEW OR NO CLOUDS BELOW 12,000 FEET WITH NO
SIGNIFICANT WEATHER AND/OR OBSTRUCTIONS TO VISIBILITY.

ARZ001-003-010-029-072100-
NORTHWEST ARKANSAS

CITY           SKY/WX    TMP DP  RH WIND       PRES   REMARKS
FAYETTEVILLE   CLOUDY    53  30  41 W14G22    30.05F
FORT SMITH     PTSUNNY   60  26  27 W16G23    30.06F
HARRISON       CLOUDY    55  27  34 W15G26    30.01F
BENTONVILLE    MOSUNNY   50  27  40 W12G21    30.08S
ROGERS         CLOUDY    50  29  44 W14       30.06F
SILOAM SPGS    MOSUNNY   52  27  37 NW13      30.08S
HIGHFILL       MOSUNNY   51  30  44 NW12      30.07F
SPRINGDALE     MOSUNNY  N/A N/A N/A W16G25    30.08F
$$

ARZ004-005-016-072100-
NORTH CENTRAL ARKANSAS

CITY           SKY/WX    TMP DP  RH WIND       PRES   REMARKS
BATESVILLE     MOSUNNY   57  25  28 SW16G23   30.02F
FLIPPIN        CLOUDY   N/A N/A N/A W17       29.98F
MTN HOME       CLOUDY    54  23  30 VRB7G16   29.99F
$$

ARZ040-041-072100-
WEST CENTRAL ARKANSAS

CITY           SKY/WX    TMP DP  RH WIND       PRES   REMARKS
MENA           PTSUNNY   59  32  36 W8        30.09F
MOUNT IDA      PTSUNNY   58  30  34 VRB5      30.06F
$$

ARZ009-017-025-026-028-072100-
NORTHEAST ARKANSAS

CITY           SKY/WX    TMP DP  RH WIND       PRES   REMARKS
CORNING        FAIR      57  32  38 SW17G23   29.98F
JONESBORO      CLOUDY    54  32  43 SW23      30.01F
NEWPORT        CLOUDY    60  28  29 SW17      30.02F
WALNUT RIDGE   MOSUNNY   57  27  30 SW22      29.99F
BLYTHEVILLE    CLOUDY    60  30  32 SW20G26   30.02F
$$

ARZ022-023-033-042-044-072100-
CENTRAL ARKANSAS

CITY           SKY/WX    TMP DP  RH WIND       PRES   REMARKS
LITTLE ROCK    PTSUNNY   59  28  30 SW15G21   30.08F
N LITTLE ROCK  PTSUNNY   57  28  33 SW8G18    30.08F
JACKSONVILLE   PTSUNNY   59  26  28 SW13      30.05F
SEARCY         CLOUDY    59  27  29 SW12G18   30.06F
HOT SPRINGS    PTSUNNY   58  27  30 SW12      30.09F
RUSSELLVILLE   MOSUNNY   55  31  39 N6        30.05F
CLINTON        FAIR      55  27  33 SW8       30.04F
$$

ARZ036-072100-
EAST ARKANSAS

CITY           SKY/WX    TMP DP  RH WIND       PRES   REMARKS
WEST MEMPHIS   MOSUNNY   56  31  38 SW12G20   30.05F
$$

ARZ050-053-066-070-073-072100-
SOUTHWEST ARKANSAS

CITY           SKY/WX    TMP DP  RH WIND       PRES   REMARKS
ARKADELPHIA    FAIR      60  34  37 SW9       30.12F
CAMDEN         SUNNY     64  25  22 SW12      30.12F
TEXARKANA      SUNNY     60  29  30 SW10      30.12F
EL DORADO      SUNNY     60  27  28 SW12      30.12F
DE QUEEN       SUNNY     60  34  37 W10       30.10F
$$

ARZ056-057-069-072100-
SOUTHEAST ARKANSAS

CITY           SKY/WX    TMP DP  RH WIND       PRES   REMARKS
PINE BLUFF     SUNNY     59  27  29 SW13      30.09F
STUTTGART      SUNNY     57  30  35 SW15      30.09F
MONTICELLO     SUNNY     61  28  28 SW13G20   30.10F

$$





USA.gov is the U.S. government's official web portal to all federal, state and local government web resources and services.